Regional Weather Roundup
Issued by NWS Charleston, WV

Home | Current Version | Previous Version | Text Only | Print | Product List | Glossary Off
Versions: 1 2 3 4 5 6 7 8 9 10 11 12 13 14 15 16 17 18 19 20 21 22 23 24 25 26 27 28 29 30 31 32 33 34 35 36 37 38 39 40 41 42 43 44 45 46 47 48 49 50

000
ASUS41 KRLX 271010
RWRRLX
West Virginia Regional Weather Roundup
National Weather Service Charleston WV
500 AM EST SAT DEC 27 2014

Note: "fair" indicates few or no clouds below 12,000 feet with no
significant weather and/or obstructions to visibility.

WVZ003-271100-
Northern Panhandle of West Virginia

CITY           SKY/WX    TMP DP  RH WIND       PRES   REMARKS
WHEELING       PTCLDY    39  28  64 S6        30.21R
$$

WVZ009-271100-
Northwest West Virginia

CITY           SKY/WX    TMP DP  RH WIND       PRES   REMARKS
PARKERSBURG    MOCLDY    42  29  59 CALM      30.26R
$$

WVZ006-271100-
Western West Virginia

CITY           SKY/WX    TMP DP  RH WIND       PRES   REMARKS
HUNTINGTON     CLOUDY    42  34  73 CALM      30.23R
$$

WVZ015-271100-
West Central West Virginia

CITY           SKY/WX    TMP DP  RH WIND       PRES   REMARKS
CHARLESTON     MOCLDY    39  33  79 CALM      30.23F
$$

WVZ022-031-271100-
North Central West Virginia

CITY           SKY/WX    TMP DP  RH WIND       PRES   REMARKS
CLARKSBURG     PTCLDY    33  29  85 CALM      30.23S
MORGANTOWN     PTCLDY    35  25  66 CALM      30.22F
$$

WVZ025-035-042-045-271100-
Southern West Virginia

CITY           SKY/WX    TMP DP  RH WIND       PRES   REMARKS
BECKLEY        CLOUDY    40  26  57 CALM      30.24F
LOGAN          PTSUNNY   43  28  56 CALM      30.24R
BLUEFIELD      CLOUDY    40  25  55 SW5       30.26S
LEWISBURG      MOCLDY    32  29  90 CALM      30.25F
$$

WVZ047-271100-
Northern Mountains of West Virginia

CITY           SKY/WX    TMP DP  RH WIND       PRES   REMARKS
ELKINS         PTCLDY    30  28  92 CALM      30.25F
$$

WVZ052-271100-
Eastern Panhandle of West Virginia

CITY           SKY/WX    TMP DP  RH WIND       PRES   REMARKS
MARTINSBURG    MOCLDY    30  25  81 CALM      30.25S
PETERSBURG     MOCLDY    32  32 100 CALM      30.25F
$$



USA.gov is the U.S. government's official web portal to all federal, state and local government web resources and services.